Location: ????? ???????
(25.7275°N, 32.5929°E)
Time: 11:47:28
(UTC+00:00)

Centaur AC-64 - Pass Details

Date: 02 March 2021
Orbit: 306 x 25684 km, 23.3° (Epoch: 15 April)

Event Time Altitude Azimuth Distance (km) Brightness Sun altitude
Rises 17:54:14 0° 261° (W) 15,680 10.8 -28.3°
Reaches altitude 10° 18:15:57 10° 262° (W) 9,331 9.3 -33.1°
Enters shadow 18:35:56 64° 234° (SW) 1,468 4.3 -37.6°
